#timestamp,LO_Frequency,Hit,StdDev 
1682938815.8,286047000.1,N
1682938835.7,286046999.7,N
1682938855.5,286047000.5,N
1682938875.3,286047002.5,N
1682938895.2,286047002.1,N
1682938915.0,286047002.7,N
1682938915.9,286047002.7,N
1682938935.8,286047001.6,N
1682938955.6,286047002.2,N
1682938975.4,286047001.7,N
1682938995.3,286047002.5,N
1682939015.1,286047002.2,N
1682939035.8,286047000.0,N
1682939055.7,286047000.3,N
1682939075.5,286047001.0,N
1682939095.4,286047000.6,N
1682939115.2,286047000.5,N
1682939135.0,286047001.2,N
1682939135.9,286047001.2,N
1682939155.8,286046998.2,N
1682939175.6,286047000.2,N
1682939195.4,286047000.1,N
1682939215.3,286047001.4,N
1682939235.1,286047002.6,N
1682939255.9,286047002.7,N
1682939275.7,286047002.1,N
1682939295.5,286047002.1,N
1682939315.4,286047001.5,N
1682939335.2,286047002.5,N
1682939355.0,286047002.1,N
1682939356.0,286047002.1,N
1682939375.8,286047002.2,N
1682939395.6,286047001.6,N
1682939415.5,286047002.2,N
1682939435.3,286047004.1,Y
1682939455.1,286047001.8,P
1682939475.9,286047004.4,P
1682939495.7,286047001.3,N
1682939515.6,286047004.3,Y
1682939535.4,286047000.3,P
1682939555.2,286047000.3,N
1682939575.1,286047000.5,N
1682939576.0,286047000.5,N
1682939595.8,286047000.4,N
1682939615.6,286047001.3,N
1682939635.5,286047001.5,N
1682939655.3,286047002.8,Y
1682939675.2,286047001.9,P
1682939695.9,286047003.7,P
1682939715.7,286047005.7,P
1682939735.6,286047003.6,N
1682939755.4,286047005.3,Y
1682939775.3,286047004.2,P
1682939795.1,286047001.3,N
1682939796.0,286047001.3,N
1682939815.8,286047002.7,N
1682939835.7,286047002.0,N
1682939855.5,286047000.5,N
1682939875.3,286046998.3,N
1682939895.2,286046998.9,N
1682939915.0,286046997.5,N
1682939915.9,286046997.5,N
1682939935.8,286046997.5,N
1682939955.6,286046994.9,N
1682939975.4,286046995.3,N
1682939995.3,286046995.3,N
1682940015.1,286046995.5,N
1682940035.8,286046996.3,N
1682940055.7,286046993.6,N
1682940075.5,286046992.1,N
1682940095.4,286046994.8,N
1682940115.2,286046993.2,N
1682940135.0,286046992.7,N
1682940135.9,286046992.7,N
1682940155.8,286046990.5,N
1682940175.6,286046990.6,N
1682940195.4,286046992.5,N
1682940215.3,286046992.8,N
1682940235.1,286046992.9,N
1682940255.9,286046991.8,N
1682940275.7,286046994.5,N
1682940295.5,286046994.5,N
1682940315.4,286046994.3,N
1682940335.2,286046994.5,N
1682940355.0,286046992.2,N
1682940355.9,286046992.2,N
1682940375.8,286046991.8,N
1682940395.6,286046994.3,N
1682940415.5,286046992.9,Y
1682940435.3,286046996.9,P
1682940455.1,286046996.9,N
1682940475.9,286046996.8,N
1682940495.7,286046997.0,N
1682940515.5,286046996.1,Y
1682940535.4,286047000.9,P
1682940555.2,286046998.1,N
1682940575.1,286046998.9,N
1682940576.0,286046998.9,N
1682940595.8,286046999.4,N
1682940615.6,286046998.5,N
1682940635.5,286046998.5,N
1682940655.3,286046998.6,N
1682940675.1,286046999.8,N
1682940695.9,286047000.7,N
1682940715.7,286047001.1,N
1682940735.6,286046998.1,N
1682940755.4,286047000.9,N
1682940775.2,286047002.4,N
1682940795.1,286047002.4,N
1682940796.0,286047002.4,N
1682940815.8,286047001.5,N
1682940835.6,286047002.0,N
1682940855.5,286046999.7,N
1682940875.3,286047000.3,N
1682940895.2,286047000.6,N
1682940915.9,286046999.3,N
1682940935.7,286046999.3,N
1682940955.6,286046998.8,N
1682940975.4,286046999.4,N
1682940995.2,286046999.2,N
1682941015.1,286046998.9,N
1682941016.0,286046998.9,N
1682941035.8,286046998.5,N
1682941055.7,286046997.0,N
1682941075.5,286046996.9,N
1682941095.3,286046996.5,N
1682941115.2,286046999.6,N
1682941135.0,286046998.5,N
1682941135.9,286046998.5,N
1682941155.8,286046999.2,N
1682941175.6,286046999.1,N
1682941195.4,286046998.9,N
1682941215.3,286047000.8,N
1682941235.1,286047000.2,N
1682941255.8,286047002.7,N
1682941275.7,286047001.4,N
1682941295.5,286047003.9,N
1682941315.4,286047003.8,N
1682941335.2,286047004.0,N
1682941355.0,286047004.4,N
1682941355.9,286047004.4,N
1682941375.8,286047003.6,N
1682941395.6,286047004.3,N
1682941415.4,286047004.2,N
1682941435.3,286047005.6,N
1682941455.1,286047004.7,N
1682941475.8,286047004.4,N
1682941495.7,286047003.5,N
1682941515.5,286047003.1,N
1682941535.4,286047004.9,N
1682941555.2,286047004.9,N
1682941575.0,286047005.0,N
1682941575.9,286047005.0,N
1682941595.8,286047005.8,N
1682941615.6,286047011.9,Y
1682941635.5,286047002.2,P
1682941655.3,286047002.2,P
1682941675.1,286047002.7,P
1682941695.9,286047000.2,N
1682941715.7,286047000.7,N
1682941735.5,286046998.3,N
1682941755.4,286047001.2,N
1682941775.2,286046998.2,N
1682941795.0,286047000.9,N
1682941795.9,286047000.9,N
1682941815.8,286046998.9,N
1682941835.6,286046997.0,N
1682941855.5,286046996.7,N
1682941875.3,286046997.3,N
1682941895.1,286046997.6,N
1682941915.9,286046993.7,Y
1682941935.7,286046994.0,P
1682941955.5,286046993.9,N
1682941975.4,286046993.7,N
1682941995.2,286046995.5,N
1682942015.1,286046995.1,N
1682942016.0,286046995.1,N
1682942035.8,286046997.6,N
1682942055.6,286046998.0,N
1682942075.5,286046995.1,N
1682942095.3,286046999.6,N
1682942115.1,286046999.6,N
1682942135.9,286047001.1,N
1682942155.7,286047000.7,N
1682942175.6,286046999.1,N
1682942195.4,286046997.1,N
1682942215.2,286046996.9,N
1682942235.1,286046996.6,N
1682942236.0,286046996.6,N
1682942255.8,286046999.0,N
1682942275.6,286046999.2,N
1682942295.5,286046997.5,N
1682942315.3,286046997.0,N
1682942335.2,286046997.7,N
1682942355.9,286046998.0,N
1682942375.7,286046996.9,N
1682942395.6,286046997.4,N
